Wind_Speed
13 13 13 13 13 14 14 14 14 15 15 15 16 16 16 16 16 16 16 16 17 17 17 18 19 20 20 21 22 23 23 24 25 25 26 27 28 29
16 16 17 17 17 17 18 18 18 18 18 18 18 19 19 20 20 20 19 19 20 20 20 21 21 21 22 23 24 24 25 25 26 27 28 28 29 31
19 20 20 20 21 21 21 21 21 21 21 21 21 22 22 22 23 23 24 24 24 24 24 24 24 24 25 25 26 26 27 27 28 28 29 30 30 32
23 23 23 23 24 24 24 24 24 24 24 24 24 24 25 25 25 26 26 27 27 27 27 27 27 27 27 28 28 28 29 29 30 30 31 31 32 32
25 26 26 26 26 27 27 27 28 28 28 28 28 28 28 29 29 29 30 30 30 30 31 31 31 31 31 31 31 31 32 32 32 32 33 33 33 34
28 29 29 29 30 30 30 31 31 31 31 31 31 32 32 33 33 33 33 33 33 34 34 34 34 34 34 35 35 34 34 35 35 35 35 35 36 36
31 32 32 33 33 34 34 34 34 34 34 34 34 35 35 36 37 37 36 36 35 36 37 37 37 37 37 37 38 38 37 37 37 37 37 38 38 38
34 35 35 36 36 37 37 37 37 37 38 38 39 38 38 39 40 40 40 39 38 39 41 40 40 40 40 41 41 41 41 40 40 40 40 40 40 40
36 37 37 38 39 40 40 40 40 41 42 42 43 42 42 43 44 45 45 45 43 42 44 43 43 43 44 44 44 44 43 43 43 43 42 42 42 42
38 39 41 41 41 42 43 43 43 44 45 46 46 45 46 46 47 48 49 49 47 47 47 47 46 47 47 48 47 47 47 47 46 46 45 45 44 44
41 43 43 44 44 44 45 45 46 46 47 48 49 49 50 50 51 52 53 53 52 51 52 52 50 51 51 51 51 51 50 49 49 49 48 48 47 47
42 43 43 44 46 47 47 48 48 49 50 51 52 53 54 55 56 57 57 58 58 57 56 57 56 57 56 54 54 54 54 52 52 51 51 50 50 49
43 44 45 46 48 49 50 51 52 53 53 54 55 57 58 59 60 62 63 64 64 63 62 62 62 62 62 59 57 57 57 55 55 54 53 52 52 51
45 46 48 49 51 52 53 55 57 58 59 60 61 62 64 65 66 67 68 69 69 68 67 68 67 67 67 66 63 61 60 59 58 56 55 55 54 53
49 51 52 54 55 57 58 60 62 63 65 66 68 69 70 71 72 72 72 72 72 71 71 71 71 70 70 69 68 66 64 62 61 59 57 57 56 56
53 55 57 59 61 62 64 65 66 68 69 70 72 72 73 74 74 74 74 73 73 71 71 71 71 71 71 70 69 68 66 64 63 62 61 59 58 57
58 60 62 63 64 66 67 68 69 70 71 71 71 71 70 70 69 70 71 71 72 71 69 69 70 70 70 70 70 68 67 65 64 63 63 61 59 58
61 62 63 64 65 65 66 66 67 67 67 66 65 64 63 62 62 62 63 64 65 64 63 63 64 65 66 65 65 65 65 65 64 63 63 62 59 58
60 61 61 61 61 61 62 61 61 59 58 58 57 56 56 55 54 54 54 54 55 55 56 56 57 57 59 59 57 60 60 61 61 61 60 59 58 56
58 58 58 58 58 57 56 55 54 52 51 50 49 48 48 48 48 48 47 47 46 46 46 47 49 51 52 52 51 52 54 55 56 56 56 56 55 54
54 54 54 53 53 51 50 48 46 45 44 42 42 42 41 41 41 40 39 39 39 39 38 38 39 41 42 43 43 43 46 49 50 51 52 52 52 52
49 48 48 47 45 43 42 40 39 39 38 37 36 36 35 35 34 33 33 32 32 32 32 32 33 34 35 36 36 36 39 42 45 45 46 47 48 48
43 42 41 40 38 36 35 34 35 34 33 33 32 32 32 30 29 28 27 27 26 26 26 26 27 28 29 30 30 30 32 35 38 40 41 41 42 43
Wind_Direction
269 273 276 277 280 282 284 285 285 283 283 283 282 282 283 283 284 283 282 280 279 278 277 276 275 273 271 270 269 267 266 265 264 264 262 260 258 258
270 273 276 279 281 282 283 285 284 283 282 281 281 281 281 281 282 281 280 278 277 277 276 276 275 274 272 270 269 268 267 266 265 264 264 262 261 260
270 273 275 278 280 281 283 284 284 284 283 282 280 280 280 280 280 280 280 279 277 276 275 275 274 274 273 272 270 268 267 267 266 266 265 264 263 261
272 274 276 278 280 281 281 282 282 283 283 283 282 281 280 279 278 278 278 277 277 277 276 275 274 273 273 272 270 269 268 267 266 266 265 265 264 263
272 274 276 277 279 280 281 281 282 282 282 282 282 282 281 279 278 277 277 276 275 275 275 274 274 273 272 271 270 269 268 267 266 266 265 265 264 264
273 274 275 276 277 278 279 279 279 280 280 281 281 281 281 280 279 277 277 278 277 276 275 274 273 273 272 271 270 269 268 267 266 266 265 264 263 263
272 272 273 274 275 276 277 278 278 278 279 280 279 279 279 278 277 276 276 276 277 277 276 275 274 273 272 271 270 269 268 267 266 266 265 265 264 263
271 272 272 273 274 275 276 276 276 277 278 278 278 278 277 276 276 276 276 276 275 275 275 274 273 272 271 271 270 269 269 268 266 265 265 264 264 263
273 274 274 273 274 275 275 275 275 275 276 276 277 277 277 276 276 276 276 276 275 273 273 272 271 271 270 269 268 268 268 267 266 266 265 265 264 263
274 274 275 274 275 274 274 274 274 274 275 275 276 276 276 276 276 276 276 276 275 274 273 271 269 269 268 267 267 266 266 266 265 265 265 264 264 263
274 274 274 273 273 273 273 273 273 273 273 274 275 275 275 275 275 275 275 275 274 273 273 272 270 268 267 266 266 266 265 264 264 264 264 264 263 263
274 274 274 274 273 273 273 273 273 273 274 274 275 276 275 275 275 275 275 274 274 273 273 272 271 269 267 266 266 265 265 264 263 263 262 262 262 262
276 276 277 276 276 276 277 276 276 276 275 275 275 276 276 276 276 275 275 275 274 274 273 271 270 269 268 266 264 264 264 263 262 262 262 261 261 261
278 278 278 278 279 280 280 280 280 279 279 278 278 277 277 276 275 275 274 274 274 273 272 271 270 269 268 267 265 262 262 261 261 260 260 260 260 260
280 280 280 280 281 280 280 280 280 280 280 279 279 278 278 277 276 275 274 273 272 272 271 270 269 268 267 266 264 262 260 259 259 258 257 257 258 258
282 282 282 282 282 282 281 281 281 280 280 280 279 279 278 277 276 275 274 273 272 271 270 270 268 267 266 264 263 261 260 258 257 256 255 255 255 256
284 284 284 284 284 284 283 283 282 282 281 281 280 279 278 277 277 276 275 274 273 271 269 268 267 266 265 264 262 261 260 258 256 255 254 254 253 254
286 286 285 285 284 284 284 283 283 282 282 282 282 281 280 280 279 278 277 275 274 273 271 268 266 265 263 262 261 260 258 257 255 254 254 254 253 252
287 286 286 286 286 286 286 285 285 285 284 284 283 283 282 281 281 280 279 278 276 274 272 269 266 265 263 261 259 258 257 255 254 252 252 252 251 250
288 288 287 288 288 288 288 287 287 286 286 285 285 284 284 283 283 282 281 280 279 277 273 269 267 265 264 262 259 256 256 254 252 251 250 250 249 248
290 290 290 290 290 290 289 288 288 287 287 286 287 287 287 287 286 285 284 283 281 279 275 271 268 266 265 264 261 256 253 252 251 249 248 247 247 247
292 293 293 293 292 292 291 290 290 290 289 289 289 289 289 289 288 287 285 285 284 283 279 274 270 268 266 265 263 258 253 250 249 248 246 247 248 247
295 295 295 294 294 294 293 292 292 292 290 289 290 291 290 291 290 289 287 287 288 286 281 276 272 269 267 266 263 259 254 250 248 247 246 246 247 245
Height
5871 5870 5870 5870 5869 5869 5868 5868 5868 5867 5866 5865 5865 5864 5863 5862 5861 5861 5860 5859 5859 5858 5857 5857 5856 5856 5855 5855 5855 5855 5854 5854 5854 5854 5855 5855 5855 5856
5866 5866 5865 5865 5864 5864 5863 5862 5862 5862 5861 5861 5860 5859 5858 5857 5856 5855 5854 5854 5853 5852 5852 5851 5850 5850 5849 5849 5849 5848 5848 5848 5848 5848 5848 5848 5848 5849
5861 5861 5860 5859 5858 5858 5857 5856 5856 5855 5855 5854 5854 5853 5852 5851 5850 5849 5848 5847 5846 5845 5845 5844 5843 5843 5842 5842 5841 5841 5841 5840 5840 5840 5840 5840 5840 5841
5855 5855 5854 5853 5852 5851 5850 5849 5849 5848 5848 5847 5846 5845 5844 5843 5842 5841 5840 5839 5838 5837 5837 5836 5836 5835 5834 5834 5833 5833 5833 5832 5832 5832 5832 5832 5832 5832
5849 5848 5847 5846 5845 5844 5843 5842 5841 5840 5839 5839 5838 5836 5835 5834 5833 5832 5831 5830 5830 5829 5828 5827 5826 5826 5825 5825 5824 5824 5823 5823 5823 5823 5823 5823 5823 5823
5841 5840 5839 5838 5837 5835 5834 5833 5832 5831 5830 5829 5828 5827 5826 5824 5823 5822 5821 5820 5820 5819 5818 5817 5816 5816 5815 5814 5814 5813 5813 5813 5813 5813 5813 5813 5813 5813
5833 5831 5830 5829 5828 5826 5825 5824 5822 5821 5820 5819 5818 5817 5816 5814 5812 5811 5810 5810 5809 5808 5807 5806 5805 5805 5804 5803 5803 5802 5802 5802 5802 5802 5802 5802 5802 5802
5823 5821 5820 5819 5818 5816 5815 5814 5812 5811 5809 5807 5806 5805 5804 5802 5800 5799 5798 5798 5798 5797 5794 5795 5793 5793 5792 5791 5791 5790 5790 5790 5790 5790 5790 5790 5791 5791
5813 5811 5810 5808 5807 5805 5804 5802 5801 5799 5797 5795 5794 5793 5792 5790 5788 5786 5785 5784 5784 5784 5782 5782 5781 5780 5779 5778 5777 5777 5777 5777 5777 5777 5777 5778 5778 5778
5801 5800 5798 5797 5795 5793 5791 5790 5788 5786 5784 5781 5780 5779 5778 5776 5774 5772 5770 5769 5770 5769 5767 5767 5767 5766 5765 5764 5763 5763 5763 5763 5763 5763 5764 5764 5765 5765
5789 5787 5786 5784 5782 5780 5778 5776 5775 5773 5770 5767 5766 5764 5763 5761 5758 5756 5755 5753 5753 5754 5751 5750 5751 5750 5749 5749 5748 5748 5748 5748 5749 5749 5749 5750 5750 5751
5776 5773 5771 5770 5768 5765 5763 5762 5760 5758 5756 5753 5751 5749 5746 5744 5741 5739 5737 5735 5734 5735 5735 5732 5732 5730 5731 5733 5732 5731 5731 5732 5733 5733 5734 5735 5735 5736
5762 5760 5757 5755 5753 5750 5748 5745 5743 5741 5739 5737 5735 5732 5729 5726 5723 5720 5717 5715 5714 5715 5715 5712 5711 5710 5710 5713 5714 5713 5713 5715 5715 5716 5717 5718 5719 5720
5749 5746 5743 5740 5737 5734 5731 5728 5725 5722 5720 5718 5715 5713 5710 5707 5703 5699 5696 5693 5692 5692 5692 5689 5689 5688 5688 5690 5693 5695 5694 5695 5696 5698 5700 5701 5702 5704
5734 5730 5727 5724 5720 5717 5713 5709 5705 5702 5699 5696 5693 5690 5686 5683 5679 5676 5673 5670 5669 5668 5667 5665 5664 5663 5663 5665 5668 5671 5673 5675 5677 5679 5681 5683 5685 5686
5717 5713 5709 5705 5701 5697 5693 5688 5684 5680 5676 5672 5669 5665 5661 5657 5653 5650 5647 5645 5644 5645 5642 5640 5638 5638 5638 5640 5642 5646 5650 5653 5657 5659 5661 5664 5666 5669
5699 5694 5690 5685 5680 5675 5670 5665 5660 5656 5651 5647 5643 5639 5635 5632 5628 5624 5621 5619 5618 5618 5619 5616 5613 5612 5613 5615 5618 5622 5626 5630 5634 5637 5639 5643 5648 5651
5679 5674 5669 5664 5659 5653 5648 5643 5637 5632 5627 5623 5619 5615 5612 5608 5605 5602 5597 5595 5593 5593 5593 5592 5590 5588 5589 5593 5596 5599 5603 5607 5611 5615 5618 5622 5629 5633
5659 5654 5649 5643 5638 5632 5627 5622 5617 5611 5606 5602 5598 5595 5591 5588 5585 5582 5578 5575 5573 5571 5571 5569 5568 5567 5568 5573 5578 5578 5581 5586 5589 5594 5598 5603 5609 5615
5640 5634 5629 5624 5618 5613 5607 5602 5598 5593 5589 5585 5581 5577 5573 5570 5567 5564 5561 5558 5555 5553 5552 5551 5550 5549 5550 5553 5558 5562 5562 5566 5570 5575 5580 5584 5590 5595
5622 5616 5611 5605 5600 5595 5590 5585 5581 5577 5573 5569 5566 5563 5559 5555 5552 5550 5547 5544 5541 5539 5538 5537 5536 5535 5535 5537 5541 5546 5548 5549 5553 5557 5563 5567 5572 5577
5606 5600 5595 5589 5584 5580 5575 5571 5567 5564 5560 5557 5553 5550 5547 5543 5541 5538 5536 5533 5530 5528 5526 5526 5525 5524 5524 5526 5528 5531 5533 5535 5538 5543 5548 5552 5556 5562
5592 5587 5581 5576 5572 5567 5563 5560 5556 5552 5549 5545 5542 5539 5536 5533 5531 5529 5526 5524 5522 5519 5517 5516 5515 5515 5515 5516 5517 5519 5521 5524 5527 5531 5536 5540 5544 5548